TimeEST,TemperatureF,Dew PointF,Humidity,Sea Level PressureIn,VisibilityMPH,Wind Direction,Wind SpeedMPH,Gust SpeedMPH,PrecipitationIn,Events,Conditions,WindDirDegrees,DateUTC
12:53 AM,71.1,69.1,93,30.07,10.0,Calm,Calm,-,N/A,,Clear,0,2012-12-13 05:53:00
1:53 AM,71.1,70.0,96,30.08,10.0,West,3.5,-,N/A,,Scattered Clouds,280,2012-12-13 06:53:00
2:53 AM,73.0,71.1,93,30.06,10.0,Calm,Calm,-,N/A,,Mostly Cloudy,0,2012-12-13 07:53:00
3:53 AM,71.1,69.1,93,30.05,10.0,Calm,Calm,-,N/A,,Clear,0,2012-12-13 08:53:00
4:53 AM,71.1,69.1,93,30.05,10.0,South,3.5,-,N/A,,Clear,180,2012-12-13 09:53:00
5:53 AM,70.0,69.1,97,30.07,10.0,Calm,Calm,-,N/A,,Clear,0,2012-12-13 10:53:00
6:53 AM,69.1,69.1,100,30.08,10.0,Calm,Calm,-,N/A,,Clear,0,2012-12-13 11:53:00
7:53 AM,72.0,72.0,100,30.10,10.0,Calm,Calm,-,N/A,,Scattered Clouds,0,2012-12-13 12:53:00
8:53 AM,75.9,72.0,87,30.11,10.0,SW,5.8,-,N/A,,Clear,230,2012-12-13 13:53:00
9:53 AM,78.1,71.1,79,30.11,10.0,West,9.2,-,N/A,,Scattered Clouds,270,2012-12-13 14:53:00
10:46 AM,78.8,69.8,74,30.11,10.0,West,9.2,-,N/A,,Mostly Cloudy,280,2012-12-13 15:46:00
10:53 AM,81.0,71.1,72,30.11,10.0,WSW,9.2,-,N/A,,Mostly Cloudy,250,2012-12-13 15:53:00
11:28 AM,75.2,69.8,83,30.12,10.0,NNW,15.0,-,N/A,,Overcast,330,2012-12-13 16:28:00
11:33 AM,75.2,69.8,83,30.11,10.0,NW,12.7,-,N/A,,Overcast,320,2012-12-13 16:33:00
11:53 AM,77.0,70.0,79,30.12,10.0,NW,12.7,-,N/A,,Overcast,320,2012-12-13 16:53:00
12:18 PM,77.0,69.8,78,30.11,10.0,NNW,13.8,-,N/A,,Overcast,340,2012-12-13 17:18:00
12:53 PM,75.9,68.0,76,30.09,10.0,NNW,13.8,-,N/A,,Overcast,330,2012-12-13 17:53:00
1:53 PM,73.9,68.0,82,30.08,10.0,North,13.8,-,N/A,,Overcast,350,2012-12-13 18:53:00
2:53 PM,73.9,66.9,79,30.08,10.0,NNW,13.8,-,N/A,,Overcast,340,2012-12-13 19:53:00
3:53 PM,72.0,66.0,81,30.08,10.0,North,12.7,-,N/A,,Overcast,350,2012-12-13 20:53:00
8:53 PM,70.0,63.0,78,30.12,10.0,North,11.5,16.1,N/A,,Overcast,350,2012-12-14 01:53:00
9:53 PM,68.0,63.0,84,30.12,10.0,NNW,10.4,-,N/A,,Partly Cloudy,330,2012-12-14 02:53:00
10:53 PM,66.0,63.0,90,30.12,10.0,NW,10.4,-,N/A,,Scattered Clouds,320,2012-12-14 03:53:00
11:16 PM,64.4,62.6,94,30.11,10.0,NNW,9.2,-,N/A,,Mostly Cloudy,330,2012-12-14 04:16:00
11:31 PM,64.4,62.6,94,30.11,10.0,NW,8.1,-,N/A,,Mostly Cloudy,320,2012-12-14 04:31:00
11:53 PM,64.0,62.1,93,30.11,10.0,NNW,11.5,-,N/A,,Overcast,330,2012-12-14 04:53:00